Location: Highridge
(54.0333°N, 114.1333°W)
Time: 03:05:43
(UTC+00:00)

TIGRISAT - Visible Passes

Search period start: 07 December 2023 00:00
Search period end: 17 December 2023 00:00
Orbit: 598 x 676 km, 97.7° (Epoch: 06 December)

Date Brightness Start Highest point End Pass type
(mag) Time Alt. Az. Time Alt. Az. Time Alt. Az.
07 Dec ? 00:47:17 10° NNE 00:51:46 67° ESE 00:56:06 10° S visible
07 Dec ? 02:24:29 10° N 02:27:50 21° WNW 02:31:07 10° WSW visible
08 Dec ? 01:09:53 10° NNE 01:14:22 79° WNW 01:18:42 10° SSW visible
08 Dec ? 02:47:39 10° NNW 02:50:07 15° NW 02:52:35 10° W visible
08 Dec ? 23:56:27 10° NE 00:00:07 24° E 00:03:40 10° SSE visible
09 Dec ? 01:32:33 10° N 01:36:53 50° WNW 01:41:04 10° SW visible
09 Dec ? 03:11:43 10° NW 03:12:21 10° NW 03:13:00 10° NW visible
10 Dec ? 00:18:43 10° NNE 00:22:51 37° E 00:26:53 10° SSE visible
10 Dec ? 01:55:20 10° N 01:59:18 33° WNW 02:03:12 10° SW visible
11 Dec ? 00:41:08 10° NNE 00:45:32 59° E 00:49:47 10° S visible
11 Dec ? 02:18:13 10° N 02:21:40 23° WNW 02:25:04 10° WSW visible
12 Dec ? 01:03:40 10° NNE 01:08:07 87° WNW 01:12:26 10° SSW visible
12 Dec ? 02:41:18 10° NNW 02:43:58 16° NW 02:46:35 10° W visible
13 Dec ? 01:26:18 10° N 01:30:38 56° WNW 01:34:50 10° SSW visible
13 Dec ? 03:04:56 10° NNW 03:06:11 11° NW 03:07:25 10° WNW visible
14 Dec ? 00:12:32 10° NNE 00:16:32 33° E 00:20:24 10° SSE visible
14 Dec ? 01:49:01 10° N 01:53:03 36° WNW 01:56:59 10° SW visible
15 Dec ? 00:34:54 10° NNE 00:39:11 52° E 00:43:22 10° S visible
15 Dec ? 02:11:51 10° N 02:15:25 25° WNW 02:18:54 10° WSW visible
16 Dec ? 00:57:22 10° NNE 01:01:47 83° ESE 01:06:02 10° SSW visible
16 Dec ? 02:34:51 10° NNW 02:37:42 17° NW 02:40:29 10° W visible
